Zurück zum Katalog

USA 424

AktivMilitärVLEO
NORAD 61647·PAYLOAD·🇺🇸 United States

Gestartet Oct 24, 2024 von Vandenberg Space Force Base

Loading…

Nächste Überflüge (nächste 24 Stunden)

TLE

VeraltetSource: Mike McCants

Epoche: Aug 8, 2026, 21:25 UTC

1 61647U 24192D   26220.89298411 0.00000000  00000-0  00000-0 0    09
2 61647  70.0218 134.8237 0004000 226.6798 133.3201 14.96713487    09

Verfolge USA 424 in Echtzeit mit AllMySat

Download on the App Store